Kezdőlap
METAR-TAF:

METAR-TAF

Repülőterek :

Chaitén, Chile

földrajzi szélesség: 42-55-58S, földrajzi hosszúság: 072-41-58W, magasság: 4 m

Jelenlegi meteorológiai megfigyelések

A jelentés 42 perccel ezelõtt készült, 21:00 UTC
Dél-délnyugati szél 9 kt
Hőmérséklet 14°C
Páratartalom 67%
Légköri nyomás 1014 hPa
Látótávolság 10 km, vagy több
felhőtlen 1500 m magasságban, és nincs gomolyfelhõ

METAR: SCTN 232100Z 20009KT CAVOK 14/08 Q1014

Idő: 18:42 (21:42 UTC)


TAF: hiányzik

Meteorológiai megfigyelések és előrejelzések több, mint 4000 repülőtéren (METAR és TAF jelentéseket).

A térképen piros és sárga pontok jelzik az elérhető meteorológiai állomásokat.

Mozgassa az egeret a pont fölött, hogy megjelenjen az állomás neve.

Azután kattintson az időjárási megfigyelések és előrejelzések megtekintéséhez.

A térkép megváltoztatása: kattintson a fekete keresztel jelölt zöld gombra ráközelítéshez, a vonallal jelölt zöld gombra távolításhoz, vagy a zöld nyilakra a szomszédos térképek eléréséhez.


METAR-TAF: